Weather History for KPBI - June, 2014

Change the Weather History Date:

Tuesday, June 10, 2014

  Actual Average Record
Temperature  
Mean Temperature 81 °F 81 °F  
Max Temperature 90 °F 88 °F 96 °F (1951)
Min Temperature 72 °F 74 °F 63 °F (1914)
Degree Days  
Heating Degree Days 0 0  
Month to date heating degree days 0 0  
Since 1 June heating degree days 0 0  
Since 1 July heating degree days 122 233  
Cooling Degree Days 16 16  
Month to date cooling degree days 164 159  
Year to date cooling degree days 1516 1268  
Since 1 June cooling degree days 164 159  
Growing Degree Days 31 (Base 50)    
Moisture  
Dew Point 70 °F    
Average Humidity 73    
Maximum Humidity 87    
Minimum Humidity 59    
Precipitation  
Precipitation 0.03 in 0.28 in 8.42 in (1912)
Month to date precipitation 0.98 2.70  
Year to date precipitation 18.70 21.41  
Snow  
Snow 0.00 in - - ()
Month to date snowfall 0.0  
Since 1 June snowfall 0.0  
Since 1 July snowfall 0.0  
Snow Depth 0.00 in    
Sea Level Pressure  
Sea Level Pressure 30.01 in    
Wind  
Wind Speed 5 mph (SSE)    
Max Wind Speed 20 mph    
Max Gust Speed 25 mph    
Visibility 10 miles    
Events Rain , Thunderstorm    
T = Trace of Precipitation, MM = Missing Value Source: NWS Daily Summary

Daily Weather History Graph

Daily Weather History Graph

Search for Another Location

Airport or City:

Trip Planner

Search our weather history database for the weather conditions in past years. The results will help you decide how hot, cold, wet, or windy it might be!

Date:

Astronomy

Jun. 10, 2014 Rise Set
Actual Time 6:26 AM EDT 8:13 PM EDT
Civil Twilight 6:00 AM EDT 8:39 PM EDT
Nautical Twilight 5:28 AM EDT 9:11 PM EDT
Astronomical Twilight 4:55 AM EDT 9:44 PM EDT
Moon 5:49 PM EDT (6/10) 4:16 AM EDT (6/10)
Length of Visible Light 14h 39m
Length of Day
13h 47m
Waxing Gibbous, 92% of the Moon is Illuminated
Jun 10
Waxing Gibbous
Jun 13
Full
Jun 19
Last Quarter
Jun 27
New
Jul 5
First Quarter

Hourly Weather History & Observations

Time (EDT) Temp. Heat Index Dew Point Humidity Pressure Visibility Wind Dir Wind Speed Gust Speed Precip Events Conditions
12:53 AM 75.9 °F - 68.0 °F 76% 30.00 in 10.0 mi South 3.5 mph - N/A   Clear
1:53 AM 75.0 °F - 68.0 °F 79% 29.99 in 10.0 mi Calm Calm - N/A   Partly Cloudy
2:53 AM 75.0 °F - 69.1 °F 82% 29.98 in 10.0 mi Calm Calm - N/A   Scattered Clouds
3:53 AM 75.9 °F - 68.0 °F 76% 29.98 in 10.0 mi Calm Calm - N/A   Scattered Clouds
4:53 AM 73.0 °F - 68.0 °F 84% 29.98 in 10.0 mi NW 3.5 mph - N/A   Scattered Clouds
5:53 AM 73.0 °F - 69.1 °F 87% 29.99 in 10.0 mi Calm Calm - N/A   Scattered Clouds
6:53 AM 75.0 °F - 69.1 °F 82% 30.01 in 10.0 mi Calm Calm - N/A   Mostly Cloudy
7:53 AM 77.0 °F - 70.0 °F 79% 30.01 in 10.0 mi Calm Calm - N/A   Scattered Clouds
8:53 AM 82.0 °F 87.4 °F 73.0 °F 74% 30.02 in 10.0 mi NNW 3.5 mph - N/A   Scattered Clouds
9:53 AM 84.0 °F 90.2 °F 73.0 °F 69% 30.02 in 10.0 mi East 3.5 mph - N/A   Scattered Clouds
10:53 AM 87.1 °F 93.6 °F 72.0 °F 61% 30.02 in 10.0 mi SSE 5.8 mph - N/A   Scattered Clouds
11:53 AM 87.1 °F 94.5 °F 73.0 °F 63% 30.02 in 10.0 mi ESE 11.5 mph - N/A   Scattered Clouds
12:53 PM 89.1 °F 98.0 °F 73.9 °F 61% 30.01 in 10.0 mi SE 11.5 mph 20.7 mph N/A   Mostly Cloudy
1:53 PM 89.1 °F 98.0 °F 73.9 °F 61% 30.00 in 10.0 mi SE 13.8 mph 19.6 mph N/A   Mostly Cloudy
2:38 PM 89.1 °F 98.0 °F 73.9 °F 61% 30.00 in 10.0 mi ESE 12.7 mph - N/A Thunderstorm Thunderstorm
2:49 PM 82.4 °F 85.4 °F 68.0 °F 62% 30.02 in 10.0 mi SW 15.0 mph 20.7 mph N/A Thunderstorm Thunderstorm
2:53 PM 82.0 °F 84.9 °F 68.0 °F 62% 30.02 in 10.0 mi SW 11.5 mph 20.7 mph N/A Thunderstorm Thunderstorm
3:20 PM 82.0 °F 84.9 °F 68.0 °F 62% 30.02 in 10.0 mi SSW 5.8 mph - N/A   Mostly Cloudy
3:53 PM 82.0 °F 84.5 °F 66.9 °F 60% 30.02 in 10.0 mi SW 17.3 mph - 0.00 in Rain Light Rain
3:59 PM 80.6 °F 83.2 °F 68.0 °F 65% 30.02 in 10.0 mi SW 15.0 mph - N/A Thunderstorm Thunderstorm
4:53 PM 80.1 °F 82.3 °F 66.9 °F 64% 30.00 in 10.0 mi South 8.1 mph - 0.00 in Rain , Thunderstorm Light Thunderstorms and Rain
5:25 PM 77.0 °F - 70.0 °F 79% 29.99 in 10.0 mi SSE 3.5 mph - 0.02 in Rain Light Rain
5:53 PM 78.1 °F - 71.1 °F 79% 29.98 in 10.0 mi SSE 6.9 mph - 0.03 in   Mostly Cloudy
6:53 PM 79.0 °F - 72.0 °F 79% 30.00 in 10.0 mi South 4.6 mph - N/A   Mostly Cloudy
7:53 PM 80.1 °F 83.6 °F 71.1 °F 74% 30.01 in 10.0 mi SE 3.5 mph - N/A   Mostly Cloudy
8:53 PM 80.1 °F 83.2 °F 70.0 °F 71% 30.03 in 10.0 mi Calm Calm - N/A   Mostly Cloudy
9:53 PM 79.0 °F - 71.1 °F 77% 30.02 in 10.0 mi SE 4.6 mph - N/A   Scattered Clouds
10:53 PM 78.8 °F - 69.8 °F 74% 30.02 in 10.0 mi SE 4.6 mph - N/A   Partly Cloudy
11:53 PM 79.0 °F - 71.1 °F 77% 30.02 in 10.0 mi SSE 5.8 mph - N/A   Partly Cloudy